N2RF EDDG-EHAM

Flight info

Callsign N2RF
Flight time 0h 36m
Altitude 18000
Route AMSAN L980 RKN
Aircraft C700/L-V/N

Departure

Time 2026-04-27 08:36
Airport Münster Osnabrück Airport (EDDG)

Arrival

Time 2026-04-27 09:12
Airport Amsterdam Airport Schiphol (EHAM)
Time Latitude Longitude Altitude Speed Heading
2026-04-27 08:21 52.13144 7.68355 164 ft 0 kts
2026-04-27 08:22 52.13159 7.68358 164 ft 6 kts
2026-04-27 08:22 52.13208 7.68350 164 ft 7 kts 341°
2026-04-27 08:23 52.13243 7.68314 164 ft 5 kts 302°
2026-04-27 08:23 52.13246 7.68269 164 ft 4 kts 256°
2026-04-27 08:23 52.13234 7.68219 164 ft 6 kts 251°
2026-04-27 08:23 52.13216 7.68135 163 ft 10 kts 251°
2026-04-27 08:24 52.13187 7.68000 161 ft 15 kts 250°
2026-04-27 08:24 52.13149 7.67825 159 ft 18 kts 252°
2026-04-27 08:24 52.13105 7.67608 156 ft 22 kts 251°
2026-04-27 08:24 52.13054 7.67366 156 ft 23 kts 251°
2026-04-27 08:25 52.12995 7.67186 159 ft 15 kts 246°
2026-04-27 08:25 52.13047 7.67087 159 ft 13 kts 340°
2026-04-27 08:25 52.13143 7.67051 158 ft 15 kts 27°
2026-04-27 08:25 52.13170 7.67109 157 ft 0 kts 68°
2026-04-27 08:26 52.13209 7.67266 156 ft 38 kts 69°
2026-04-27 08:26 52.13349 7.67924 159 ft 82 kts 69°
2026-04-27 08:27 52.13587 7.68970 163 ft 116 kts 64°
2026-04-27 08:27 52.13154 7.68326 164 ft 0 kts 270°
2026-04-27 08:33 52.13155 7.68323 163 ft 1 kts 294°
2026-04-27 08:33 52.13182 7.68313 163 ft 11 kts 345°
2026-04-27 08:33 52.13223 7.68196 164 ft 20 kts 249°
2026-04-27 08:34 52.13163 7.67913 160 ft 32 kts 252°
2026-04-27 08:34 52.13078 7.67515 156 ft 43 kts 252°
2026-04-27 08:34 52.13025 7.67142 159 ft 25 kts 293°
2026-04-27 08:34 52.13177 7.67066 158 ft 24 kts 37°
2026-04-27 08:35 52.13213 7.67241 156 ft 5 kts 73°
2026-04-27 08:35 52.13220 7.67278 156 ft 0 kts 70°
2026-04-27 08:35 52.13234 7.67347 155 ft 38 kts 72°
2026-04-27 08:35 52.13431 7.68286 165 ft 132 kts 72°
2026-04-27 08:36 52.13719 7.70058 762 ft 174 kts 80°
2026-04-27 08:36 52.13938 7.72285 1407 ft 238 kts 69°
2026-04-27 08:36 52.15159 7.74578 1434 ft 295 kts 33°
2026-04-27 08:36 52.17040 7.75454 1442 ft 277 kts
2026-04-27 08:37 52.18801 7.74536 1417 ft 261 kts 326°
2026-04-27 08:37 52.19839 7.72314 1355 ft 247 kts 289°
2026-04-27 08:37 52.19840 7.69548 1330 ft 246 kts 251°
2026-04-27 08:37 52.19287 7.66968 2574 ft 239 kts 249°
2026-04-27 08:38 52.18568 7.64448 4048 ft 255 kts 244°
2026-04-27 08:38 52.17892 7.61763 5595 ft 261 kts 253°
2026-04-27 08:38 52.17520 7.58850 7351 ft 264 kts 265°
2026-04-27 08:38 52.17424 7.55807 8865 ft 277 kts 269°
2026-04-27 08:39 52.17334 7.52538 10034 ft 306 kts 267°
2026-04-27 08:39 52.17131 7.48908 11217 ft 334 kts 265°
2026-04-27 08:39 52.16891 7.45098 12904 ft 339 kts 265°
2026-04-27 08:39 52.16682 7.41265 14641 ft 346 kts 266°
2026-04-27 08:40 52.16483 7.37316 16172 ft 352 kts 266°
2026-04-27 08:40 52.16267 7.33295 17681 ft 361 kts 265°
2026-04-27 08:40 52.16026 7.29039 18035 ft 388 kts 265°
2026-04-27 08:40 52.15783 7.24692 18172 ft 392 kts 265°
2026-04-27 08:41 52.15540 7.20274 19469 ft 388 kts 265°
2026-04-27 08:41 52.15293 7.15851 20324 ft 391 kts 265°
2026-04-27 08:41 52.15049 7.11563 19259 ft 381 kts 265°
2026-04-27 08:41 52.14822 7.07286 18383 ft 371 kts 265°
2026-04-27 08:42 52.14644 7.03204 18360 ft 360 kts 266°
2026-04-27 08:42 52.14456 6.99033 18375 ft 379 kts 265°
2026-04-27 08:42 52.14243 6.94778 18373 ft 375 kts 265°
2026-04-27 08:42 52.14027 6.90505 18374 ft 379 kts 265°
2026-04-27 08:43 52.13817 6.86205 18371 ft 379 kts 266°
2026-04-27 08:43 52.13613 6.82010 18369 ft 371 kts 266°
2026-04-27 08:43 52.13419 6.77841 18361 ft 367 kts 268°
2026-04-27 08:43 52.13556 6.73672 18356 ft 369 kts 277°
2026-04-27 08:44 52.13921 6.69534 18358 ft 369 kts 278°
2026-04-27 08:44 52.14269 6.65425 18358 ft 369 kts 277°
2026-04-27 08:44 52.14615 6.61263 18357 ft 369 kts 277°
2026-04-27 08:44 52.14770 6.57081 18352 ft 385 kts 264°
2026-04-27 08:45 52.14108 6.52779 18375 ft 393 kts 252°
2026-04-27 08:45 52.13158 6.48595 18372 ft 395 kts 250°
2026-04-27 08:45 52.12232 6.44416 18372 ft 396 kts 252°
2026-04-27 08:45 52.10890 6.40480 18338 ft 401 kts 233°
2026-04-27 08:46 52.08743 6.37546 18354 ft 405 kts 213°
2026-04-27 08:46 52.06138 6.36043 18351 ft 389 kts 192°
2026-04-27 08:46 52.03542 6.36169 18351 ft 371 kts 170°
2026-04-27 08:46 52.01247 6.37809 18355 ft 348 kts 149°
2026-04-27 08:47 51.99416 6.40212 18335 ft 332 kts 132°
2026-04-27 08:47 51.98246 6.43443 18345 ft 351 kts 111°
2026-04-27 08:47 51.97838 6.47520 18366 ft 383 kts 87°
2026-04-27 08:47 51.98481 6.51877 18365 ft 413 kts 63°
2026-04-27 08:48 52.00144 6.55720 18373 ft 416 kts 46°
2026-04-27 08:48 52.02338 6.58702 18360 ft 414 kts 31°
2026-04-27 08:48 52.04865 6.60991 18363 ft 413 kts 21°
2026-04-27 08:48 52.07531 6.62516 18359 ft 409 kts 12°
2026-04-27 08:49 52.10325 6.63292 18372 ft 405 kts
2026-04-27 08:49 52.13113 6.63292 18367 ft 402 kts 352°
2026-04-27 08:49 52.15863 6.62530 18363 ft 400 kts 343°
2026-04-27 08:49 52.18483 6.61032 18363 ft 397 kts 333°
2026-04-27 08:50 52.20912 6.58851 18002 ft 397 kts 324°
2026-04-27 08:50 52.23021 6.56104 17518 ft 387 kts 315°
2026-04-27 08:50 52.24816 6.52863 17040 ft 381 kts 307°
2026-04-27 08:50 52.26432 6.49482 16642 ft 379 kts 307°
2026-04-27 08:51 52.28073 6.46094 16382 ft 379 kts 307°
2026-04-27 08:51 52.29703 6.42743 16121 ft 381 kts 307°
2026-04-27 08:51 52.31343 6.39350 15865 ft 380 kts 307°
2026-04-27 08:51 52.32979 6.35949 15605 ft 378 kts 307°
2026-04-27 08:52 52.34603 6.32574 15344 ft 376 kts 307°
2026-04-27 08:52 52.36223 6.29211 15096 ft 375 kts 307°
2026-04-27 08:52 52.37837 6.25853 14833 ft 374 kts 307°
2026-04-27 08:52 52.39449 6.22493 14576 ft 374 kts 307°
2026-04-27 08:53 52.41033 6.19186 14326 ft 373 kts 307°
2026-04-27 08:53 52.42637 6.15834 14059 ft 373 kts 307°
2026-04-27 08:53 52.44245 6.12471 13783 ft 372 kts 307°
2026-04-27 08:53 52.45832 6.09145 13526 ft 369 kts 307°
2026-04-27 08:54 52.47341 6.05816 13271 ft 367 kts 302°
2026-04-27 08:54 52.48482 6.02070 13014 ft 365 kts 291°
2026-04-27 08:54 52.49179 5.98051 12768 ft 365 kts 281°
2026-04-27 08:54 52.49446 5.93959 12481 ft 363 kts 274°
2026-04-27 08:55 52.49631 5.89789 12015 ft 363 kts 275°
2026-04-27 08:55 52.49827 5.85670 11558 ft 360 kts 275°
2026-04-27 08:55 52.50017 5.81593 11109 ft 357 kts 275°
2026-04-27 08:55 52.50199 5.77567 10666 ft 355 kts 275°
2026-04-27 08:56 52.50379 5.73543 10327 ft 350 kts 275°
2026-04-27 08:56 52.50559 5.69577 10326 ft 355 kts 275°
2026-04-27 08:56 52.50741 5.65513 10325 ft 354 kts 275°
2026-04-27 08:56 52.50919 5.61468 10335 ft 356 kts 275°
2026-04-27 08:57 52.50390 5.53448 10007 ft 361 kts 253°
2026-04-27 08:57 52.49556 5.49650 9533 ft 343 kts 251°
2026-04-27 08:57 52.48780 5.46073 9048 ft 322 kts 252°
2026-04-27 08:58 52.48058 5.42673 8574 ft 307 kts 251°
2026-04-27 08:58 52.47366 5.39458 8115 ft 295 kts 252°
2026-04-27 08:58 52.46688 5.36337 7650 ft 285 kts 251°
2026-04-27 08:58 52.46040 5.33355 7376 ft 272 kts 251°
2026-04-27 08:59 52.45421 5.30492 7363 ft 264 kts 251°
2026-04-27 08:59 52.44794 5.27603 7368 ft 271 kts 251°
2026-04-27 08:59 52.44163 5.24697 7371 ft 274 kts 251°
2026-04-27 08:59 52.43736 5.22737 7372 ft 275 kts 251°
2026-04-27 09:00 52.43088 5.19769 7372 ft 274 kts 251°
2026-04-27 09:00 52.42238 5.15876 7372 ft 273 kts 251°
2026-04-27 09:00 52.41813 5.13930 7372 ft 273 kts 251°
2026-04-27 09:00 52.41168 5.10987 7367 ft 272 kts 251°
2026-04-27 09:01 52.40531 5.08083 7369 ft 274 kts 250°
2026-04-27 09:01 52.39885 5.05139 7370 ft 275 kts 250°
2026-04-27 09:01 52.39234 5.02184 7371 ft 275 kts 251°
2026-04-27 09:01 52.38592 4.99264 7371 ft 275 kts 251°
2026-04-27 09:02 52.37938 4.96301 7373 ft 275 kts 251°
2026-04-27 09:02 52.37288 4.93357 7374 ft 275 kts 251°
2026-04-27 09:02 52.36641 4.90430 7374 ft 275 kts 250°
2026-04-27 09:02 52.35985 4.87471 7373 ft 275 kts 250°
2026-04-27 09:03 52.35341 4.84565 7373 ft 275 kts 250°
2026-04-27 09:03 52.34687 4.81618 7376 ft 275 kts 251°
2026-04-27 09:03 52.34031 4.78669 7374 ft 274 kts 251°
2026-04-27 09:03 52.33539 4.75691 7185 ft 278 kts 263°
2026-04-27 09:04 52.33566 4.72532 6895 ft 275 kts 277°
2026-04-27 09:04 52.33983 4.69478 6484 ft 272 kts 284°
2026-04-27 09:04 52.34316 4.66504 6205 ft 266 kts 274°
2026-04-27 09:04 52.34165 4.63475 6068 ft 265 kts 259°
2026-04-27 09:05 52.33551 4.60644 6065 ft 269 kts 244°
2026-04-27 09:05 52.32554 4.57997 5880 ft 279 kts 238°
2026-04-27 09:05 52.31508 4.55300 5428 ft 278 kts 239°
2026-04-27 09:05 52.30498 4.52677 4976 ft 273 kts 239°
2026-04-27 09:06 52.29493 4.50073 4590 ft 266 kts 238°
2026-04-27 09:06 52.28514 4.47555 4334 ft 256 kts 238°
2026-04-27 09:06 52.27381 4.45424 4051 ft 250 kts 217°
2026-04-27 09:06 52.25776 4.44300 3574 ft 253 kts 190°
2026-04-27 09:07 52.24036 4.44415 3114 ft 251 kts 163°
2026-04-27 09:07 52.22514 4.45718 2655 ft 248 kts 138°
2026-04-27 09:07 52.21484 4.47905 2200 ft 246 kts 115°
2026-04-27 09:07 52.21107 4.50394 1972 ft 204 kts 95°
2026-04-27 09:08 52.21169 4.52663 1992 ft 200 kts 78°
2026-04-27 09:08 52.21612 4.54731 1975 ft 188 kts 62°
2026-04-27 09:08 52.22283 4.56498 1984 ft 178 kts 60°
2026-04-27 09:08 52.22883 4.58246 1971 ft 177 kts 59°
2026-04-27 09:09 52.23521 4.59961 1980 ft 177 kts 58°
2026-04-27 09:09 52.24203 4.61701 1753 ft 186 kts 57°
2026-04-27 09:09 52.24904 4.63489 1488 ft 191 kts 58°
2026-04-27 09:09 52.25609 4.65310 1221 ft 179 kts 57°
2026-04-27 09:10 52.26274 4.66997 1016 ft 172 kts 59°
2026-04-27 09:10 52.26814 4.68409 862 ft 135 kts 59°
2026-04-27 09:10 52.27286 4.69606 614 ft 115 kts 59°
2026-04-27 09:10 52.27692 4.70653 448 ft 103 kts 58°
2026-04-27 09:11 52.28082 4.71649 335 ft 109 kts 58°
2026-04-27 09:11 52.28490 4.72700 200 ft 107 kts 57°
2026-04-27 09:11 52.28887 4.73719 55 ft 106 kts 57°
2026-04-27 09:11 52.29239 4.74620 -4 ft 57 kts 53°
2026-04-27 09:12 52.29354 4.74893 -8 ft 34 kts 53°
2026-04-27 09:12 52.29504 4.75257 -9 ft 23 kts 57°
2026-04-27 09:12 52.29685 4.75292 -8 ft 32 kts 328°
2026-04-27 09:12 52.29708 4.75270 -8 ft 0 kts 330°
2026-04-27 09:13 52.29711 4.75267 -8 ft 4 kts 329°
2026-04-27 09:13 52.29762 4.75276 -8 ft 8 kts 12°
2026-04-27 09:13 52.29838 4.75364 -8 ft 20 kts 42°
2026-04-27 09:14 52.29944 4.75603 -8 ft 32 kts 56°
2026-04-27 09:14 52.30075 4.75948 -8 ft 38 kts 59°
2026-04-27 09:14 52.30198 4.76268 -8 ft 33 kts 57°
2026-04-27 09:14 52.30328 4.76603 -8 ft 36 kts 57°
2026-04-27 09:15 52.30467 4.76967 -8 ft 39 kts 57°
2026-04-27 09:15 52.30615 4.77353 -8 ft 40 kts 58°
2026-04-27 09:15 52.30782 4.77464 -8 ft 29 kts
2026-04-27 09:15 52.30998 4.77485 -8 ft 33 kts 11°
2026-04-27 09:16 52.31033 4.77561 -8 ft 16 kts 85°
2026-04-27 09:16 52.31130 4.77637 -8 ft 8 kts 14°
2026-04-27 09:16 52.31191 4.77774 -9 ft 31 kts 47°
2026-04-27 09:16 52.31252 4.78049 -7 ft 30 kts 89°
2026-04-27 09:17 52.31344 4.78260 -6 ft 16 kts 15°
2026-04-27 09:17 52.31375 4.78503 -11 ft 30 kts 85°
2026-04-27 09:17 52.31392 4.78897 -12 ft 41 kts 86°
2026-04-27 09:17 52.31403 4.79126 -11 ft 0 kts 85°